Weather History for Mount Holly, NJ

Change the Weather History Date:

Thursday, January 3, 2013

  Actual Average (KWRI) Record (KWRI)
Temperature  
Mean Temperature 28 °F -  
Max Temperature 34 °F 41 °F 86 °F (2006)
Min Temperature 21 °F 25 °F 6 °F (2014)
Degree Days  
Heating Degree Days 38    
Moisture  
Dew Point 15 °F    
Average Humidity 57    
Maximum Humidity 78    
Minimum Humidity 40    
Precipitation  
Precipitation 0.00 in - - ()
Sea Level Pressure  
Sea Level Pressure 30.17 in    
Wind  
Wind Speed 4 mph (West)    
Max Wind Speed 10 mph    
Max Gust Speed -    
Visibility 10 miles    
Events      
Averages and records for this station are not official NWS values.
T = Trace of Precipitation, MM = Missing Value Source: NWS Daily Summary

Daily Weather History Graph

Daily Weather History Graph

Search for Another Location

Airport:

Trip Planner

Search our weather history database for the weather conditions in past years. The results will help you decide how hot, cold, wet, or windy it might be!

Date:

Astronomy

Jan. 03, 2013 Rise Set
Actual Time 7:21 AM EST 4:47 PM EST
Civil Twilight 6:50 AM EST 5:17 PM EST
Nautical Twilight 6:17 AM EST 5:51 PM EST
Astronomical Twilight 5:44 AM EST 6:23 PM EST
Moon 11:19 PM EST (1/3) 10:31 AM EST (1/3)
Length of Visible Light 10h 26m
Length of Day
9h 25m
Waning Gibbous, 65% of the Moon is Illuminated
Jan 3
Waning Gibbous
Jan 4
Last Quarter
Jan 11
New
Jan 18
First Quarter
Jan 26
Full

Hourly Weather History & Observations

Time (EST) Temp. Windchill Dew Point Humidity Pressure Visibility Wind Dir Wind Speed Gust Speed Precip Events Conditions
12:54 AM 27.0 °F 21.6 °F 14.0 °F 58% 30.21 in 10.0 mi NW 4.6 mph - N/A   Clear
1:54 AM 28.0 °F 22.8 °F 14.0 °F 56% 30.21 in 10.0 mi WNW 4.6 mph - N/A   Clear
2:54 AM 27.0 °F 20.5 °F 15.1 °F 61% 30.21 in 10.0 mi NNW 5.8 mph - N/A   Clear
3:54 AM 27.0 °F - 14.0 °F 58% 30.21 in 10.0 mi Calm Calm - N/A   Clear
4:54 AM 26.1 °F - 14.0 °F 60% 30.21 in 10.0 mi Calm Calm - N/A   Clear
5:54 AM 25.0 °F - 14.0 °F 63% 30.20 in 10.0 mi Calm Calm - N/A   Clear
6:54 AM 21.9 °F - 14.0 °F 72% 30.21 in 10.0 mi Calm Calm - N/A   Clear
7:54 AM 21.0 °F - 15.1 °F 78% 30.21 in 10.0 mi Calm Calm - N/A   Clear
8:54 AM 27.0 °F 23.0 °F 15.1 °F 61% 30.22 in 10.0 mi West 3.5 mph - N/A   Clear
9:54 AM 28.9 °F 23.9 °F 14.0 °F 54% 30.22 in 10.0 mi WNW 4.6 mph - N/A   Clear
10:54 AM 30.0 °F 23.2 °F 14.0 °F 51% 30.21 in 10.0 mi West 6.9 mph - N/A   Clear
11:54 AM 32.0 °F 24.2 °F 14.0 °F 48% 30.17 in 10.0 mi West 9.2 mph - N/A   Clear
12:54 PM 32.0 °F 25.6 °F 12.9 °F 45% 30.15 in 10.0 mi West 6.9 mph - N/A   Clear
1:54 PM 33.1 °F 24.9 °F 10.9 °F 40% 30.13 in 10.0 mi West 10.4 mph - N/A   Clear
2:54 PM 34.0 °F 27.2 °F 12.0 °F 40% 30.12 in 10.0 mi West 8.1 mph - N/A   Clear
3:54 PM 34.0 °F 27.2 °F 12.0 °F 40% 30.12 in 10.0 mi WSW 8.1 mph - N/A   Clear
4:54 PM 33.1 °F 26.1 °F 14.0 °F 46% 30.14 in 10.0 mi WSW 8.1 mph - N/A   Clear
5:54 PM 30.9 °F 27.5 °F 16.0 °F 54% 30.14 in 10.0 mi WSW 3.5 mph - N/A   Clear
6:54 PM 30.0 °F 26.5 °F 16.0 °F 56% 30.15 in 10.0 mi WSW 3.5 mph - N/A   Clear
7:54 PM 28.0 °F 24.2 °F 17.1 °F 63% 30.15 in 10.0 mi SW 3.5 mph - N/A   Clear
8:54 PM 28.9 °F 23.9 °F 18.0 °F 64% 30.14 in 10.0 mi SW 4.6 mph - N/A   Clear
9:54 PM 28.9 °F 22.8 °F 19.0 °F 67% 30.14 in 10.0 mi SW 5.8 mph - N/A   Clear
10:54 PM 28.9 °F 21.9 °F 19.0 °F 67% 30.15 in 10.0 mi SW 6.9 mph - N/A   Clear
11:54 PM 30.0 °F 24.1 °F 19.9 °F 66% 30.14 in 10.0 mi SW 5.8 mph - N/A   Mostly Cloudy